Simultaneous Nadir Overpasses (SNOs) Predictions

Prediction of SNOs between NOAA-19 and TERRA Satellite Orbit:

Table of predicted SNOs for the next 14.0 days since TLE Epoch: 9/19/2020
Index Date (NOAA-19) Time (NOAA-19) Lat,Lon (NOAA-19) SZA (NOAA-19 ) Date (TERRA) Time (TERRA) Lat,Lon (TERRA) SZA (TERRA ) Distance(km) Time Diff (sec)
1 09/19/2020 12:08:48 -79.72,-152.43 99.99 09/19/2020 12:09:09 -79.73,-152.38 99.98 0.96 21
2 09/19/2020 12:59:46 79.50, 17.14 80.07 09/19/2020 12:58:39 79.58, 14.21 79.82 59.79 67
3 09/21/2020 17:42:09 79.72, -55.68 80.90 09/21/2020 17:42:53 79.73, -55.80 80.91 2.32 44
4 09/21/2020 18:33:03 -79.71, 111.76 99.09 09/21/2020 18:32:20 -79.73, 111.85 99.08 2.81 43
5 09/23/2020 23:15:30 -80.01, 37.64 98.27 09/23/2020 23:16:33 -79.92, 42.26 97.91 89.94 63
6 09/24/2020 00:06:24 79.72,-151.55 81.81 09/24/2020 00:06:04 79.74,-151.49 81.83 3.29 20
7 09/26/2020 05:39:34 -79.72, -54.83 97.30 09/26/2020 05:39:50 -79.74, -54.98 97.30 3.28 16
8 09/28/2020 11:12:55 79.74, 41.69 83.59 09/28/2020 11:13:35 79.74, 41.58 83.59 2.36 40
9 09/28/2020 12:03:50 -79.74,-150.95 96.40 09/28/2020 12:03:03 -79.71,-150.99 96.45 3.07 47
10 09/30/2020 16:46:10 -79.86, 137.06 95.56 09/30/2020 16:47:23 -79.69, 137.79 95.61 24.18 73
11 09/30/2020 17:37:10 79.74, -54.24 84.49 09/30/2020 17:36:48 79.72, -54.35 84.45 3.06 22
12 10/02/2020 23:10:21 -79.75, 42.43 94.63 10/02/2020 23:10:34 -79.76, 42.52 94.61 2.20 13
